Simultaneous Nadir Overpasses (SNOs) Predictions

Prediction of SNOs near equator between AQUA and NPP Satellite Orbit:

Table of predicted SNOs near equator for the next 14.0 days since TLE Epoch: 3/19/2016
Index Date (AQUA) Time (AQUA) AQUA Lat,Lon Date (NPP) Time (NPP) NPP Lat,Lon Distance(km) Time Diff (sec)
1 03/21/2016 00:09:33 4.48,-159.07 03/21/2016 00:00:02 4.48,-159.11 3.88 571
2 03/21/2016 00:57:40 0.05, 9.55 03/21/2016 00:49:24 0.14, 9.26 34.00 496
3 03/21/2016 01:45:55 -4.66, 178.15 03/21/2016 01:38:55 -4.75, 177.58 63.82 420
4 03/21/2016 02:34:02 9.19, -13.22 03/21/2016 02:28:17 9.35, -14.04 92.69 345
5 03/23/2016 16:25:47 3.34, -42.96 03/23/2016 16:16:35 3.32, -43.07 11.88 552
6 03/23/2016 17:13:54 1.20, 125.66 03/23/2016 17:05:57 1.29, 125.29 41.91 477
7 03/23/2016 18:02:10 -5.74, -65.75 03/23/2016 17:55:28 -5.90, -66.38 71.57 402
8 03/26/2016 07:58:41 -24.64, -99.49 03/26/2016 07:48:41 -24.66, -99.61 12.51 600
9 03/26/2016 08:41:59 2.14, 73.15 03/26/2016 08:33:06 2.12, 72.98 19.82 533
10 03/26/2016 09:30:07 2.33,-118.24 03/26/2016 09:22:29 2.44,-118.67 49.93 458
11 03/26/2016 10:18:22 -6.93, 50.37 03/26/2016 10:11:59 -7.10, 49.67 79.30 383
12 03/29/2016 00:10:38 -8.04, 20.14 03/29/2016 00:00:50 -8.04, 20.13 0.97 588
13 03/29/2016 00:58:13 1.03,-170.74 03/29/2016 00:49:39 0.97,-170.99 27.94 514
14 03/29/2016 01:46:20 3.51, -2.12 03/29/2016 01:39:01 3.65, -2.63 57.98 439
15 03/29/2016 02:34:35 -8.10, 166.48 03/29/2016 02:28:32 -8.25, 165.71 87.10 363
16 03/31/2016 16:26:10 -4.40, 136.78 03/31/2016 16:16:40 -4.37, 136.73 6.39 570
17 03/31/2016 17:14:26 -0.13, -54.63 03/31/2016 17:06:11 -0.23, -54.94 36.23 495
18 03/31/2016 18:02:33 4.68, 113.99 03/31/2016 17:55:34 4.79, 113.41 66.00 419
19 03/31/2016 18:50:48 -9.26, -77.40 03/31/2016 18:45:04 -9.44, -78.24 94.80 344




NCC Satellite Simultaneous Nadir Overpasses (SNOs) Prediction Service
